Find Starlink 4800

NORAD ID: 53854 Int'l Des: 2022-114 Owner: SPXS Country: US Constellation: starlink operational
LEOCIRCULAR

リアルタイム位置

3D地球を読み込み中...

Starlink 4800について

説明を読み込み中...

次回通過

Passes for default location (London). Set your location on the main map for personalized predictions.

高度履歴

Loading altitude history...

軌道要素

1 53854U 22114AN 26105.22173660 -.00000111 00000-0 11145-4 0 9996
2 53854 53.2160 120.3552 0001297 79.5927 280.5211 15.08834191198625
Epoch: Apr 15, 2026 • Age: 8 hours

現在のステータス

高度 546.2 km
速度 7.59 km/s
衛星直下点 -21.74°S, 60.69°E
打ち上げ日 Sep 19, 2022
運用期間 3.5 years
タイプ internet

技術仕様

分類 Payload
質量 305.00 kg
乾燥質量 290.00 kg
総質量 305.00 kg
長さ 0.20 m
直径 2.80 m
スパン 9.00 m
形状 Box + pan
製造者 SPXS
バスタイプ Starlink
フェーズステータス In Orbit
所有者/国 SPXS/US

Most Searched